This demonstration page uses our WeatherBlox Daily Observations layout. Learn more.

Left ArrowRight Arrow

Hourly Observations for August 29, 2020

Temp ( °F °C ) Dew Point ( °F °C ) Humidity (%) Winds ( mph kmh ) Pressure ( in mb ) Visibility ( mi km ) Precip ( " mm )
12:53 am 00:53 Clear 75 23.9 59 15 58 58 Calm 29.76 1008 7 11 0.00 0.00
1:53 am 01:53 Clear 73 22.8 59 15 62 62 NW 3 6 29.75 1008 7 11 0.00 0.00
2:53 am 02:53 Clear 73 22.8 58 14.4 59 59 N 3 6 29.75 1007 7 11 0.00 0.00
3:53 am 03:53 Hazy 72 22.2 57 13.9 59 59 NNW 5 7 29.75 1007 6 10 0.00 0.00
4:53 am 04:53 Hazy 72 22.2 58 14.4 61 61 NW 5 7 29.75 1007 6 10 0.00 0.00
5:53 am 05:53 Hazy 69 20.6 57 13.9 66 66 Calm 29.75 1008 6 10 0.00 0.00
6:53 am 06:53 Hazy 68 20 57 13.9 68 68 Calm 29.77 1008 5 8 0.00 0.00
7:53 am 07:53 Hazy 71 21.7 57 13.9 61 61 Calm 29.79 1009 5 8 0.00 0.00
8:53 am 08:53 Hazy 77 25 57 13.9 50 50 Calm 29.79 1009 5 8 0.00 0.00
9:53 am 09:53 Hazy 83 28.3 54 12.2 37 37 NNE 3 6 29.79 1009 6 10 0.00 0.00
10:53 am 10:53 Hazy 82 27.8 59 15 46 46 SW 6 9 29.80 1009 6 10 0.00 0.00
11:53 am 11:53 Hazy 86 30 53 11.7 32 32 Calm 29.79 1009 6 10 0.00 0.00
12:53 pm 12:53 Hazy 91 32.8 55 12.8 30 30 S 7 11 29.77 1008 6 10 0.00 0.00
1:53 pm 13:53 Hazy 93 33.9 57 13.9 30 30 S 8 13 29.75 1008 5 8 0.00 0.00
2:53 pm 14:53 Hazy 95 35 56 13.3 27 27 S 9 15 29.73 1007 5 8 0.00 0.00
3:53 pm 15:53 Hazy 96 35.6 56 13.3 26 26 S 8 13 29.72 1006 6 10 0.00 0.00
4:53 pm 16:53 Hazy 96 35.6 57 13.9 27 27 SSE 10 17 29.71 1006 6 10 0.00 0.00
5:53 pm 17:53 Hazy 94 34.4 56 13.3 28 28 S 12 19 29.71 1006 6 10 0.00 0.00
6:53 pm 18:53 Hazy 91 32.8 56 13.3 31 31 SSE 8 13 29.71 1006 6 10 0.00 0.00
7:53 pm 19:53 Clear 86 30 55 12.8 35 35 SE 7 11 29.73 1007 7 11 0.00 0.00
8:53 pm 20:53 Clear 82 27.8 55 12.8 40 40 SE 3 6 29.76 1008 8 13 0.00 0.00
9:53 pm 21:53 Clear 80 26.7 56 13.3 44 44 Calm 29.78 1008 8 13 0.00 0.00
10:53 pm 22:53 Clear 76 24.4 57 13.9 52 52 Calm 29.79 1009 7 11 0.00 0.00
11:53 pm 23:53 Clear 75 23.9 55 12.8 50 50 Calm 29.80 1009 8 13 0.00 0.00

Powered by AerisWeather